GOES 15

Last updated on Tue Oct 14 2025 00:02:34 GMT+0000 (Coordinated Universal Time)

1 36411U 10008A 25286.66257287 .00000025 00000+0 00000+0 0 9995 2 36411 0.6563 85.5860 0005958 148.5435 88.2822 1.00273478 57167
UTC large
Height (km)
Speed (km/s)
/
Latitude / Longitude
Inclination (degrees)
Orbital Period (minutes)
Azimuth
Elevation
Range (km)
Doppler Factor

Next 0 passes for location: London (51.5072 / 0.1276)

Sorry there are no passes over London.